Weather History for Mount Pleasant, IA

Change the Weather History Date:

Friday, February 22, 2013

  Actual Average Record
Temperature  
Mean Temperature 31 °F -  
Max Temperature 34 °F 41 °F 67 °F (1977)
Min Temperature 28 °F 23 °F -6 °F (1968)
Degree Days  
Heating Degree Days 34    
Moisture  
Dew Point 22 °F    
Average Humidity 68    
Maximum Humidity 83    
Minimum Humidity 54    
Precipitation  
Precipitation 0.01 in - - ()
Sea Level Pressure  
Sea Level Pressure 29.86 in    
Wind  
Wind Speed 10 mph (WSW)    
Max Wind Speed 18 mph    
Max Gust Speed 22 mph    
Visibility 8 miles    
Events Snow    
Averages and records for this station are not official NWS values.
T = Trace of Precipitation, MM = Missing Value Source: NWS Daily Summary

Daily Weather History Graph

Daily Weather History Graph

Search for Another Location

Airport:

Trip Planner

Search our weather history database for the weather conditions in past years. The results will help you decide how hot, cold, wet, or windy it might be!

Date:

Astronomy

Feb. 22, 2013 Rise Set
Actual Time 6:50 AM CST 5:49 PM CST
Civil Twilight 6:22 AM CST 6:17 PM CST
Nautical Twilight 5:50 AM CST 6:49 PM CST
Astronomical Twilight 5:18 AM CST 7:20 PM CST
Moon 3:00 PM CST (2/22) 4:36 AM CST (2/22)
Length of Visible Light 11h 54m
Length of Day
10h 59m
Waxing Gibbous, 90% of the Moon is Illuminated
Feb 22
Waxing Gibbous
Feb 25
Full
Mar 4
Last Quarter
Mar 11
New
Mar 19
First Quarter

Hourly Weather History & Observations

Time (CST) Temp. Windchill Dew Point Humidity Pressure Visibility Wind Dir Wind Speed Gust Speed Precip Events Conditions
12:15 AM 30.2 °F 20.2 °F 23.9 °F 77% 29.83 in 7.0 mi East 12.7 mph - N/A   Overcast
12:55 AM 30.6 °F 19.8 °F 24.4 °F 78% 29.81 in 7.0 mi East 15.0 mph - N/A   Overcast
1:15 AM 30.7 °F 20.4 °F 24.6 °F 78% 29.80 in 5.0 mi East 13.8 mph - N/A   Overcast
1:35 AM 30.9 °F 22.8 °F 24.8 °F 78% 29.80 in 4.0 mi East 9.2 mph - N/A Snow Light Snow
1:55 AM 31.1 °F 22.4 °F 24.8 °F 77% 29.80 in 4.0 mi East 10.4 mph - N/A Snow Light Snow
2:15 AM 31.3 °F 24.7 °F 25.0 °F 77% 29.80 in 7.0 mi ESE 6.9 mph - N/A Snow Light Snow
2:35 AM 31.5 °F 22.9 °F 25.3 °F 78% 29.78 in 5.0 mi ESE 10.4 mph - N/A Snow Light Snow
2:55 AM 31.5 °F 23.5 °F 25.7 °F 79% 29.78 in 3.0 mi East 9.2 mph - N/A Snow Light Snow
3:15 AM 31.6 °F 25.1 °F 25.7 °F 79% 29.77 in 3.0 mi ESE 6.9 mph - N/A Snow Light Snow
3:35 AM 31.6 °F 25.1 °F 26.1 °F 80% 29.76 in 3.0 mi ESE 6.9 mph - N/A Snow Light Snow
3:55 AM 31.6 °F 24.4 °F 26.1 °F 80% 29.76 in 2.0 mi ESE 8.1 mph - N/A Snow Light Snow
4:15 AM 31.6 °F 26.0 °F 26.1 °F 80% 29.75 in 1.8 mi ESE 5.8 mph - N/A Snow Light Snow
4:35 AM 31.6 °F 25.1 °F 26.2 °F 80% 29.75 in 2.5 mi ESE 6.9 mph - N/A Snow Light Snow
4:55 AM 31.8 °F 25.4 °F 26.4 °F 80% 29.75 in 3.0 mi ESE 6.9 mph - N/A Snow Light Snow
5:15 AM 32.0 °F 28.7 °F 26.6 °F 80% 29.75 in 5.0 mi SE 3.5 mph - N/A   Overcast
5:35 AM 32.0 °F 28.7 °F 27.0 °F 82% 29.75 in 5.0 mi SE 3.5 mph - N/A   Overcast
5:55 AM 32.2 °F 28.9 °F 27.3 °F 82% 29.75 in 4.0 mi SE 3.5 mph - N/A Snow Light Snow
6:15 AM 32.4 °F 29.1 °F 27.5 °F 82% 29.75 in 3.0 mi SSE 3.5 mph - N/A Snow Light Snow
6:35 AM 32.4 °F 29.1 °F 27.5 °F 82% 29.76 in 3.0 mi South 3.5 mph - N/A Snow Light Snow
6:55 AM 32.7 °F 29.6 °F 28.0 °F 83% 29.76 in 3.0 mi SSW 3.5 mph - N/A Snow Light Snow
7:15 AM 32.9 °F 28.5 °F 28.0 °F 82% 29.77 in 2.0 mi SSW 4.6 mph - N/A Snow Light Snow
7:35 AM 32.9 °F 25.3 °F 28.2 °F 83% 29.78 in 2.5 mi SW 9.2 mph - N/A   Overcast
7:55 AM 33.1 °F 23.9 °F 27.5 °F 80% 29.78 in 5.0 mi WSW 12.7 mph - N/A   Haze
8:15 AM 33.1 °F 23.9 °F 26.4 °F 77% 29.79 in 7.0 mi WSW 12.7 mph - N/A   Overcast
8:35 AM 33.1 °F 24.9 °F 25.7 °F 74% 29.80 in 7.0 mi WSW 10.4 mph - N/A   Overcast
8:55 AM 32.9 °F 22.8 °F 25.2 °F 73% 29.81 in 7.0 mi WSW 15.0 mph - N/A   Overcast
9:15 AM 33.3 °F 23.7 °F 24.1 °F 69% 29.82 in 10.0 mi WSW 13.8 mph - N/A   Mostly Cloudy
9:35 AM 34.3 °F 25.0 °F 23.5 °F 65% 29.81 in 10.0 mi WSW 13.8 mph - N/A   Mostly Cloudy
9:55 AM 33.8 °F 24.3 °F 23.4 °F 66% 29.83 in 10.0 mi West 13.8 mph - N/A   Overcast
10:15 AM 34.3 °F 25.0 °F 23.7 °F 65% 29.83 in 10.0 mi WSW 13.8 mph - N/A   Overcast
10:35 AM 34.0 °F 24.2 °F 23.2 °F 65% 29.84 in 10.0 mi WSW 15.0 mph - N/A   Overcast
10:55 AM 34.7 °F 25.1 °F 23.0 °F 62% 29.85 in 10.0 mi WSW 15.0 mph - N/A   Overcast
11:15 AM 34.3 °F 23.5 °F 22.8 °F 63% 29.86 in 10.0 mi SW 18.4 mph - N/A   Overcast
11:35 AM 34.5 °F 24.5 °F 23.0 °F 63% 29.86 in 10.0 mi WSW 16.1 mph 20.7 mph N/A   Overcast
11:55 AM 34.0 °F 23.0 °F 22.8 °F 64% 29.86 in 10.0 mi WSW 18.4 mph 21.9 mph N/A   Overcast
12:15 PM 34.2 °F 24.0 °F 22.1 °F 61% 29.87 in 10.0 mi WSW 16.1 mph - N/A   Overcast
12:35 PM 33.8 °F 23.9 °F 21.9 °F 62% 29.87 in 10.0 mi WSW 15.0 mph - N/A   Overcast
1:15 PM 33.8 °F 24.8 °F 22.3 °F 63% 29.87 in 10.0 mi WSW 12.7 mph - N/A   Overcast
1:35 PM 34.5 °F 26.2 °F 21.9 °F 60% 29.87 in 10.0 mi WSW 11.5 mph - N/A   Overcast
1:55 PM 34.9 °F 25.3 °F 19.6 °F 54% 29.88 in 10.0 mi WSW 15.0 mph - N/A   Overcast
2:15 PM 34.7 °F 25.5 °F 19.6 °F 54% 29.89 in 10.0 mi West 13.8 mph 18.4 mph N/A   Overcast
2:35 PM 34.3 °F 24.6 °F 19.9 °F 56% 29.89 in 10.0 mi West 15.0 mph 20.7 mph N/A   Overcast
2:55 PM 34.3 °F 27.0 °F 20.5 °F 57% 29.89 in 10.0 mi West 9.2 mph - N/A   Overcast
3:17 PM 33.8 °F 25.8 °F 19.4 °F 56% 29.90 in 10.0 mi West 10.4 mph - N/A   Overcast
3:36 PM 33.8 °F 25.8 °F 19.4 °F 56% 29.90 in 10.0 mi West 10.4 mph - N/A   Overcast
3:56 PM 33.8 °F 24.3 °F 19.4 °F 56% 29.91 in 10.0 mi West 13.8 mph - N/A   Overcast
4:16 PM 33.8 °F 28.6 °F 19.4 °F 56% 29.91 in 10.0 mi West 5.8 mph - N/A   Overcast
4:36 PM 33.8 °F 27.0 °F 19.4 °F 56% 29.92 in 10.0 mi West 8.1 mph - N/A   Overcast
4:56 PM 33.8 °F 25.8 °F 19.4 °F 56% 29.93 in 10.0 mi West 10.4 mph - N/A   Overcast
5:36 PM 33.8 °F 27.0 °F 19.4 °F 56% 29.94 in 10.0 mi West 8.1 mph - N/A   Overcast
5:57 PM 33.8 °F 24.8 °F 19.4 °F 56% 29.95 in 10.0 mi West 12.7 mph 18.4 mph N/A   Overcast
6:57 PM 32.0 °F 23.0 °F 19.4 °F 60% 29.97 in 10.0 mi West 11.5 mph - N/A   Overcast
7:18 PM 32.0 °F 23.6 °F 19.4 °F 60% 29.97 in 10.0 mi West 10.4 mph 16.1 mph N/A   Overcast
7:56 PM 30.2 °F 20.2 °F 17.6 °F 60% 29.98 in 10.0 mi West 12.7 mph - N/A   Overcast
8:16 PM 30.2 °F 21.9 °F 17.6 °F 60% 29.99 in 10.0 mi West 9.2 mph - N/A   Overcast
8:36 PM 30.2 °F 21.9 °F 17.6 °F 60% 29.99 in 10.0 mi WNW 9.2 mph - N/A   Overcast
8:56 PM 30.2 °F 22.6 °F 17.6 °F 60% 29.99 in 10.0 mi West 8.1 mph - N/A   Overcast
9:16 PM 30.2 °F 21.9 °F 17.6 °F 60% 30.00 in 10.0 mi West 9.2 mph - N/A   Overcast
9:36 PM 30.2 °F 21.3 °F 17.6 °F 60% 30.00 in 10.0 mi West 10.4 mph - N/A   Overcast
9:56 PM 28.4 °F 19.1 °F 17.6 °F 64% 30.00 in 10.0 mi West 10.4 mph - N/A   Overcast
10:16 PM 28.4 °F 19.7 °F 17.6 °F 64% 30.00 in 10.0 mi West 9.2 mph - N/A   Overcast
10:36 PM 30.2 °F 22.6 °F 15.8 °F 55% 29.99 in 10.0 mi West 8.1 mph - N/A   Overcast
10:58 PM 28.4 °F 19.1 °F 15.8 °F 59% 29.99 in 10.0 mi West 10.4 mph - N/A   Overcast
11:16 PM 28.4 °F 19.7 °F 17.6 °F 64% 29.99 in 10.0 mi West 9.2 mph - N/A   Overcast
11:37 PM 28.4 °F 21.2 °F 17.6 °F 64% 29.99 in 10.0 mi WSW 6.9 mph - N/A   Overcast
11:58 PM 28.4 °F 20.4 °F 17.6 °F 64% 29.99 in 10.0 mi WSW 8.1 mph - N/A   Overcast